• Em Portugal
  • Lista de países
  • Para 7 dias
  • Temperatura da água
  • Mapas de satélite
  • Mapa do tempo
  • Widgets de tempo
  • user-avatar
    Iniciar Sessão

    Previsão horária em Kirkuk

    Hoje, 25 Setembro, Segunda-feira

    Tempo Temperatura Precipitação Vento Pressão Humidade
    00:00 +30°C° 0 mm 2 m/s 731 mmHg 17%
    01:00 +30°C° 0 mm 2 m/s 730 mmHg 17%
    02:00 +30°C° 0 mm 2 m/s 730 mmHg 17%
    03:00 +30°C° 0 mm 2 m/s 730 mmHg 17%
    04:00 +29°C° 0 mm 2 m/s 730 mmHg 17%
    05:00 +29°C° 0 mm 2 m/s 730 mmHg 16%
    06:00 +28°C° 0 mm 2 m/s 730 mmHg 16%
    07:00 +30°C° 0 mm 2 m/s 730 mmHg 14%
    08:00 +33°C° 0 mm 3 m/s 730 mmHg 12%
    09:00 +35°C° 0 mm 3 m/s 731 mmHg 10%
    10:00 +36°C° 0 mm 3 m/s 730 mmHg 10%
    11:00 +38°C° 0 mm 4 m/s 730 mmHg 9%
    12:00 +40°C° 0 mm 4 m/s 730 mmHg 9%
    13:00 +41°C° 0 mm 4 m/s 730 mmHg 10%
    14:00 +41°C° 0 mm 4 m/s 730 mmHg 10%
    15:00 +41°C° 0 mm 4 m/s 729 mmHg 10%
    16:00 +40°C° 0 mm 4 m/s 729 mmHg 11%
    17:00 +38°C° 0 mm 3 m/s 729 mmHg 12%
    18:00 +37°C° 0 mm 3 m/s 729 mmHg 13%
    19:00 +36°C° 0 mm 2 m/s 729 mmHg 14%
    20:00 +35°C° 0 mm 2 m/s 729 mmHg 15%
    21:00 +35°C° 0 mm 2 m/s 729 mmHg 15%
    22:00 +34°C° 0 mm 2 m/s 729 mmHg 16%
    23:00 +32°C° 0 mm 2 m/s 729 mmHg 17%

    Amanhã, 26 Setembro, Terça-feira

    Tempo Temperatura Precipitação Vento Pressão Humidade
    00:00 +32°C° 0 mm 2 m/s 729 mmHg 18%
    01:00 +31°C° 0 mm 2 m/s 729 mmHg 18%
    02:00 +31°C° 0 mm 2 m/s 729 mmHg 18%
    03:00 +30°C° 0 mm 2 m/s 729 mmHg 19%
    04:00 +30°C° 0 mm 2 m/s 729 mmHg 19%
    05:00 +30°C° 0 mm 2 m/s 729 mmHg 19%
    06:00 +29°C° 0 mm 2 m/s 728 mmHg 19%
    07:00 +31°C° 0 mm 2 m/s 729 mmHg 17%
    08:00 +34°C° 0 mm 2 m/s 729 mmHg 15%
    09:00 +36°C° 0 mm 2 m/s 729 mmHg 14%
    10:00 +37°C° 0 mm 2 m/s 729 mmHg 13%
    11:00 +38°C° 0 mm 2 m/s 729 mmHg 12%
    12:00 +40°C° 0 mm 2 m/s 729 mmHg 12%
    13:00 +40°C° 0 mm 3 m/s 729 mmHg 11%
    14:00 +40°C° 0 mm 3 m/s 729 mmHg 11%
    15:00 +42°C° 0 mm 4 m/s 728 mmHg 11%
    16:00 +41°C° 0 mm 4 m/s 728 mmHg 11%
    17:00 +39°C° 0 mm 3 m/s 728 mmHg 12%
    18:00 +38°C° 0 mm 3 m/s 728 mmHg 13%
    19:00 +37°C° 0 mm 2 m/s 728 mmHg 14%
    20:00 +35°C° 0 mm 2 m/s 728 mmHg 14%
    21:00 +33°C° 0 mm 1 m/s 729 mmHg 15%
    22:00 +33°C° 0 mm 1 m/s 729 mmHg 16%
    23:00 +32°C° 0 mm 1 m/s 728 mmHg 17%

    Depois de amanhã, 27 Setembro, Quarta-feira

    Tempo Temperatura Precipitação Vento Pressão Humidade
    00:00 +31°C° 0 mm 1 m/s 728 mmHg 18%
    01:00 +31°C° 0 mm 1 m/s 728 mmHg 19%
    02:00 +30°C° 0 mm 2 m/s 728 mmHg 20%
    03:00 +30°C° 0 mm 2 m/s 728 mmHg 21%
    04:00 +29°C° 0 mm 2 m/s 728 mmHg 22%
    05:00 +29°C° 0 mm 2 m/s 728 mmHg 22%
    06:00 +29°C° 0 mm 2 m/s 728 mmHg 23%
    07:00 +31°C° 0 mm 2 m/s 729 mmHg 21%
    08:00 +33°C° 0 mm 1 m/s 729 mmHg 18%
    09:00 +35°C° 0 mm 1 m/s 730 mmHg 16%
    10:00 +37°C° 0 mm 2 m/s 730 mmHg 15%
    11:00 +38°C° 0 mm 3 m/s 730 mmHg 14%
    12:00 +40°C° 0 mm 4 m/s 730 mmHg 13%
    13:00 +40°C° 0 mm 4 m/s 729 mmHg 13%
    14:00 +40°C° 0 mm 5 m/s 729 mmHg 13%
    15:00 +40°C° 0 mm 5 m/s 729 mmHg 14%
    16:00 +39°C° 0 mm 5 m/s 729 mmHg 15%
    17:00 +37°C° 0 mm 5 m/s 729 mmHg 16%
    18:00 +36°C° 0 mm 5 m/s 729 mmHg 17%
    19:00 +35°C° 0 mm 4 m/s 729 mmHg 18%
    20:00 +34°C° 0 mm 4 m/s 729 mmHg 20%
    21:00 +33°C° 0 mm 4 m/s 730 mmHg 21%
    22:00 +32°C° 0 mm 4 m/s 729 mmHg 22%
    23:00 +32°C° 0 mm 4 m/s 729 mmHg 23%

    28 Setembro, Quinta-feira

    Tempo Temperatura Precipitação Vento Pressão Humidade
    00:00 +30°C° 0 mm 3 m/s 729 mmHg 25%
    01:00 +29°C° 0 mm 3 m/s 729 mmHg 26%
    02:00 +28°C° 0 mm 2 m/s 729 mmHg 28%
    03:00 +27°C° 0 mm 2 m/s 729 mmHg 30%
    04:00 +27°C° 0 mm 2 m/s 729 mmHg 32%
    05:00 +26°C° 0 mm 1 m/s 729 mmHg 34%
    06:00 +25°C° 0 mm 1 m/s 729 mmHg 35%
    07:00 +27°C° 0 mm 1 m/s 729 mmHg 32%
    08:00 +29°C° 0 mm 1 m/s 730 mmHg 29%
    09:00 +31°C° 0 mm 1 m/s 730 mmHg 26%
    10:00 +32°C° 0 mm 2 m/s 730 mmHg 23%
    11:00 +34°C° 0 mm 2 m/s 730 mmHg 20%
    12:00 +35°C° 0 mm 3 m/s 730 mmHg 17%
    13:00 +36°C° 0 mm 3 m/s 730 mmHg 16%
    14:00 +36°C° 0 mm 4 m/s 729 mmHg 16%
    15:00 +37°C° 0 mm 4 m/s 729 mmHg 15%
    16:00 +36°C° 0 mm 4 m/s 729 mmHg 16%
    17:00 +35°C° 0 mm 4 m/s 729 mmHg 17%
    18:00 +34°C° 0 mm 3 m/s 729 mmHg 18%
    19:00 +33°C° 0 mm 3 m/s 729 mmHg 19%
    20:00 +31°C° 0 mm 3 m/s 730 mmHg 20%
    21:00 +30°C° 0 mm 2 m/s 730 mmHg 21%
    22:00 +30°C° 0 mm 2 m/s 730 mmHg 22%
    23:00 +29°C° 0 mm 2 m/s 730 mmHg 24%

    29 Setembro, Sexta-feira

    Tempo Temperatura Precipitação Vento Pressão Humidade
    00:00 +28°C° 0 mm 1 m/s 729 mmHg 25%
    01:00 +28°C° 0 mm 1 m/s 729 mmHg 26%
    02:00 +27°C° 0 mm 2 m/s 729 mmHg 26%
    03:00 +27°C° 0 mm 2 m/s 729 mmHg 27%
    04:00 +27°C° 0 mm 2 m/s 729 mmHg 27%
    05:00 +27°C° 0 mm 3 m/s 729 mmHg 27%
    06:00 +27°C° 0 mm 3 m/s 729 mmHg 27%
    07:00 +29°C° 0 mm 3 m/s 729 mmHg 24%
    08:00 +30°C° 0 mm 2 m/s 729 mmHg 22%
    09:00 +32°C° 0 mm 2 m/s 729 mmHg 19%
    10:00 +33°C° 0 mm 1 m/s 729 mmHg 17%
    11:00 +34°C° 0 mm 1 m/s 729 mmHg 15%
    12:00 +36°C° 0 mm 1 m/s 729 mmHg 12%
    13:00 +36°C° 0 mm 1 m/s 728 mmHg 13%
    14:00 +35°C° 0 mm 0 m/s 728 mmHg 13%
    15:00 +35°C° 0 mm 0 m/s 727 mmHg 13%
    16:00 +36°C° 0 mm 1 m/s 727 mmHg 14%
    17:00 +36°C° 0 mm 1 m/s 727 mmHg 14%
    18:00 +35°C° 0 mm 1 m/s 727 mmHg 15%
    19:00 +34°C° 0 mm 1 m/s 727 mmHg 16%
    20:00 +34°C° 0 mm 1 m/s 727 mmHg 16%
    21:00 +34°C° 0 mm 1 m/s 727 mmHg 16%
    22:00 +34°C° 0 mm 2 m/s 726 mmHg 17%
    23:00 +34°C° 0 mm 3 m/s 726 mmHg 17%

    30 Setembro, Sábado

    Tempo Temperatura Precipitação Vento Pressão Humidade
    00:00 +33°C° 0 mm 4 m/s 726 mmHg 17%
    01:00 +33°C° 0 mm 4 m/s 725 mmHg 17%
    02:00 +32°C° 0 mm 4 m/s 725 mmHg 17%
    03:00 +32°C° 0 mm 4 m/s 725 mmHg 17%
    04:00 +32°C° 0 mm 4 m/s 725 mmHg 18%
    05:00 +30°C° 0 mm 4 m/s 725 mmHg 18%
    06:00 +30°C° 0 mm 4 m/s 725 mmHg 18%
    07:00 +32°C° 0 mm 5 m/s 726 mmHg 18%
    08:00 +33°C° 0 mm 6 m/s 726 mmHg 18%
    09:00 +34°C° 0 mm 6 m/s 726 mmHg 19%
    10:00 +35°C° 0 mm 6 m/s 727 mmHg 18%
    11:00 +36°C° 0 mm 6 m/s 727 mmHg 17%
    12:00 +38°C° 0 mm 6 m/s 727 mmHg 16%
    13:00 +38°C° 0 mm 6 m/s 727 mmHg 15%
    14:00 +38°C° 0 mm 6 m/s 727 mmHg 15%
    15:00 +38°C° 0 mm 6 m/s 727 mmHg 14%
    16:00 +36°C° 0 mm 5 m/s 727 mmHg 16%
    17:00 +35°C° 0 mm 5 m/s 728 mmHg 18%
    18:00 +34°C° 0 mm 4 m/s 728 mmHg 20%
    19:00 +33°C° 0 mm 4 m/s 728 mmHg 22%
    20:00 +31°C° 0 mm 3 m/s 729 mmHg 24%
    21:00 +30°C° 0 mm 3 m/s 729 mmHg 26%
    22:00 +29°C° 0 mm 3 m/s 729 mmHg 27%
    23:00 +29°C° 0 mm 2 m/s 730 mmHg 29%
    Mostrar mais